Year,Month,Day,Hour,Minute,Value (Times are PST for windspeed in km/hr)
2010,11,21,00,00,4.80
2010,11,21,00,01,2.40
2010,11,21,00,02,9.30
2010,11,21,00,03,7.80
2010,11,21,00,04,4.80
2010,11,21,00,05,6.40
2010,11,21,00,06,12.60
2010,11,21,00,07,5.10
2010,11,21,00,08,5.80
2010,11,21,00,09,7.20
2010,11,21,00,10,8.60
2010,11,21,00,11,5.70
2010,11,21,00,12,10.60
2010,11,21,00,13,10.70
2010,11,21,00,14,7.30
2010,11,21,00,15,6.80
2010,11,21,00,16,8.30
2010,11,21,00,17,11.90
2010,11,21,00,18,11.70
2010,11,21,00,19,9.30
2010,11,21,00,20,8.20
2010,11,21,00,21,3.00
2010,11,21,00,22,6.80
2010,11,21,00,23,6.80
2010,11,21,00,24,4.90
2010,11,21,00,25,4.30
2010,11,21,00,26,2.60
2010,11,21,00,27,4.00
2010,11,21,00,28,5.30
2010,11,21,00,29,3.40
2010,11,21,00,30,0.30
2010,11,21,00,31,4.70
2010,11,21,00,32,7.50
2010,11,21,00,33,11.50
2010,11,21,00,34,6.50
2010,11,21,00,35,5.70
2010,11,21,00,36,2.20
2010,11,21,00,37,1.00
2010,11,21,00,38,5.60
2010,11,21,00,39,2.80
2010,11,21,00,40,9.40
2010,11,21,00,41,6.10
2010,11,21,00,42,5.80
2010,11,21,00,43,1.70
2010,11,21,00,44,6.00
2010,11,21,00,45,9.40
2010,11,21,00,46,8.20
2010,11,21,00,47,8.20
2010,11,21,00,48,8.10
2010,11,21,00,49,8.30
2010,11,21,00,50,5.70
2010,11,21,00,51,3.60
2010,11,21,00,52,6.30
2010,11,21,00,53,10.60
2010,11,21,00,54,8.40
2010,11,21,00,55,6.60
2010,11,21,00,56,5.40
2010,11,21,00,57,5.80
2010,11,21,00,58,5.80
2010,11,21,00,59,5.00
2010,11,21,01,00,10.80
2010,11,21,01,01,8.70
2010,11,21,01,02,10.50
2010,11,21,01,03,7.50
2010,11,21,01,04,8.70
2010,11,21,01,05,6.50
2010,11,21,01,06,2.30
2010,11,21,01,07,6.50
2010,11,21,01,08,5.60
2010,11,21,01,09,1.70
2010,11,21,01,10,4.50
2010,11,21,01,11,2.80
2010,11,21,01,12,5.20
2010,11,21,01,13,2.90
2010,11,21,01,14,4.10
2010,11,21,01,15,0.10
2010,11,21,01,16,0.30
2010,11,21,01,17,2.10
2010,11,21,01,18,4.30
2010,11,21,01,19,3.60
2010,11,21,01,20,1.00
2010,11,21,01,21,6.50
2010,11,21,01,22,4.90
2010,11,21,01,23,3.60
2010,11,21,01,24,2.10
2010,11,21,01,25,4.20
2010,11,21,01,26,8.00
2010,11,21,01,27,6.60
2010,11,21,01,28,5.70
2010,11,21,01,29,0.90
2010,11,21,01,30,1.90
2010,11,21,01,31,6.90
2010,11,21,01,32,0.60
2010,11,21,01,33,1.70
2010,11,21,01,34,4.30
2010,11,21,01,35,1.10
2010,11,21,01,36,1.40
2010,11,21,01,37,2.50
2010,11,21,01,38,3.20
2010,11,21,01,39,7.80
2010,11,21,01,40,8.00
2010,11,21,01,41,5.50
2010,11,21,01,42,6.40
2010,11,21,01,43,3.50
2010,11,21,01,44,0.30
2010,11,21,01,45,3.20
2010,11,21,01,46,6.20
2010,11,21,01,47,2.40
2010,11,21,01,48,1.10
2010,11,21,01,49,1.10
2010,11,21,01,50,7.50
2010,11,21,01,51,5.10
2010,11,21,01,52,3.80
2010,11,21,01,53,5.70
2010,11,21,01,54,1.80
2010,11,21,01,55,3.60
2010,11,21,01,56,2.80
2010,11,21,01,57,10.70
2010,11,21,01,58,6.40
2010,11,21,01,59,6.80
2010,11,21,02,00,4.80
2010,11,21,02,01,6.20
2010,11,21,02,02,5.70
2010,11,21,02,03,8.60
2010,11,21,02,04,5.20
2010,11,21,02,05,2.90
2010,11,21,02,06,6.80
2010,11,21,02,07,10.10
2010,11,21,02,08,8.30
2010,11,21,02,09,9.80
2010,11,21,02,10,8.30
2010,11,21,02,11,10.00
2010,11,21,02,12,9.20
2010,11,21,02,13,7.60
2010,11,21,02,14,5.00
2010,11,21,02,15,10.20
2010,11,21,02,16,6.20
2010,11,21,02,17,4.10
2010,11,21,02,18,4.20
2010,11,21,02,19,9.00
2010,11,21,02,20,8.50
2010,11,21,02,21,3.50
2010,11,21,02,22,5.60
2010,11,21,02,23,2.40
2010,11,21,02,24,8.70
2010,11,21,02,25,3.40
2010,11,21,02,26,6.90
2010,11,21,02,27,11.00
2010,11,21,02,28,7.60
2010,11,21,02,29,5.40
2010,11,21,02,30,6.50
2010,11,21,02,31,11.30
2010,11,21,02,32,8.30
2010,11,21,02,33,5.30
2010,11,21,02,34,8.50
2010,11,21,02,35,8.70
2010,11,21,02,36,9.90
2010,11,21,02,37,7.70
2010,11,21,02,38,12.00
2010,11,21,02,39,11.10
2010,11,21,02,40,13.60
2010,11,21,02,41,9.70
2010,11,21,02,42,9.00
2010,11,21,02,43,5.10
2010,11,21,02,44,7.30
2010,11,21,02,45,2.50
2010,11,21,02,46,4.40
2010,11,21,02,47,10.80
2010,11,21,02,48,8.40
2010,11,21,02,49,5.40
2010,11,21,02,50,11.50
2010,11,21,02,51,6.50
2010,11,21,02,52,6.40
2010,11,21,02,53,6.40
2010,11,21,02,54,6.40
2010,11,21,02,55,9.70
2010,11,21,02,56,8.10
2010,11,21,02,57,8.30
2010,11,21,02,58,6.80
2010,11,21,02,59,11.40
2010,11,21,03,00,6.00
2010,11,21,03,01,8.80
2010,11,21,03,02,9.10
2010,11,21,03,03,8.70
2010,11,21,03,04,5.10
2010,11,21,03,05,5.10
2010,11,21,03,06,5.30
2010,11,21,03,07,5.40
2010,11,21,03,08,10.30
2010,11,21,03,09,4.50
2010,11,21,03,10,7.50
2010,11,21,03,11,7.60
2010,11,21,03,12,7.70
2010,11,21,03,13,5.00
2010,11,21,03,14,3.90
2010,11,21,03,15,1.50
2010,11,21,03,16,6.10
2010,11,21,03,17,6.20
2010,11,21,03,18,7.20
2010,11,21,03,19,7.30
2010,11,21,03,20,4.50
2010,11,21,03,21,7.50
2010,11,21,03,22,7.40
2010,11,21,03,23,1.90
2010,11,21,03,24,3.20
2010,11,21,03,25,4.50
2010,11,21,03,26,9.50
2010,11,21,03,27,4.70
2010,11,21,03,28,3.00
2010,11,21,03,29,4.40
2010,11,21,03,30,2.60
2010,11,21,03,31,6.30
2010,11,21,03,32,8.70
2010,11,21,03,33,6.10
2010,11,21,03,34,10.90
2010,11,21,03,35,6.10
2010,11,21,03,36,1.60
2010,11,21,03,37,3.20
2010,11,21,03,38,9.70
2010,11,21,03,39,9.80
2010,11,21,03,40,7.60
2010,11,21,03,41,9.10
2010,11,21,03,42,4.00
2010,11,21,03,43,3.60
2010,11,21,03,44,7.40
2010,11,21,03,45,10.60
2010,11,21,03,46,8.50
2010,11,21,03,47,8.30
2010,11,21,03,48,5.10
2010,11,21,03,49,0.70
2010,11,21,03,50,4.10
2010,11,21,03,51,4.60
2010,11,21,03,52,3.10
2010,11,21,03,53,0.30
2010,11,21,03,54,3.50
2010,11,21,03,55,5.70
2010,11,21,03,56,8.10
2010,11,21,03,57,8.50
2010,11,21,03,58,7.80
2010,11,21,03,59,8.70
2010,11,21,04,00,7.60
2010,11,21,04,01,1.40
2010,11,21,04,02,9.10
2010,11,21,04,03,6.00
2010,11,21,04,04,3.90
2010,11,21,04,05,6.20
2010,11,21,04,06,6.80
2010,11,21,04,07,7.40
2010,11,21,04,08,8.20
2010,11,21,04,09,5.30
2010,11,21,04,10,9.60
2010,11,21,04,11,3.80
2010,11,21,04,12,0.80
2010,11,21,04,13,1.80
2010,11,21,04,14,8.10
2010,11,21,04,15,12.90
2010,11,21,04,16,2.60
2010,11,21,04,17,5.10
2010,11,21,04,18,5.80
2010,11,21,04,19,10.90
2010,11,21,04,20,6.30
2010,11,21,04,21,10.30
2010,11,21,04,22,10.10
2010,11,21,04,23,9.30
2010,11,21,04,24,12.00
2010,11,21,04,25,10.10
2010,11,21,04,26,10.60
2010,11,21,04,27,7.20
2010,11,21,04,28,5.40
2010,11,21,04,29,8.00
2010,11,21,04,30,10.00
2010,11,21,04,31,10.60
2010,11,21,04,32,6.80
2010,11,21,04,33,10.00
2010,11,21,04,34,6.20
2010,11,21,04,35,13.90
2010,11,21,04,36,14.00
2010,11,21,04,37,6.80
2010,11,21,04,38,8.00
2010,11,21,04,39,7.30
2010,11,21,04,40,6.40
2010,11,21,04,41,7.70
2010,11,21,04,42,7.80
2010,11,21,04,43,10.70
2010,11,21,04,44,8.60
2010,11,21,04,45,6.70
2010,11,21,04,46,10.20
2010,11,21,04,47,3.20
2010,11,21,04,48,6.80
2010,11,21,04,49,6.90
2010,11,21,04,50,9.10
2010,11,21,04,51,8.50
2010,11,21,04,52,4.30
2010,11,21,04,53,6.70
2010,11,21,04,54,7.90
2010,11,21,04,55,4.30
2010,11,21,04,56,2.50
2010,11,21,04,57,4.00
2010,11,21,04,58,6.80
2010,11,21,04,59,5.40
2010,11,21,05,00,5.20
2010,11,21,05,01,6.80
2010,11,21,05,02,2.10
2010,11,21,05,03,4.40
2010,11,21,05,04,12.10
2010,11,21,05,05,11.20
2010,11,21,05,06,4.40
2010,11,21,05,07,8.80
2010,11,21,05,08,10.70
2010,11,21,05,09,10.50
2010,11,21,05,10,8.90
2010,11,21,05,11,15.00
2010,11,21,05,12,6.00
2010,11,21,05,13,6.00
2010,11,21,05,14,8.10
2010,11,21,05,15,9.70
2010,11,21,05,16,3.60
2010,11,21,05,17,14.20
2010,11,21,05,18,9.70
2010,11,21,05,19,9.30
2010,11,21,05,20,6.40
2010,11,21,05,21,4.00
2010,11,21,05,22,6.20
2010,11,21,05,23,4.00
2010,11,21,05,24,8.70
2010,11,21,05,25,6.00
2010,11,21,05,26,9.30
2010,11,21,05,27,4.60
2010,11,21,05,28,11.90
2010,11,21,05,29,9.70
2010,11,21,05,30,8.70
2010,11,21,05,31,2.60
2010,11,21,05,32,9.70
2010,11,21,05,33,7.90
2010,11,21,05,34,3.70
2010,11,21,05,35,9.20
2010,11,21,05,36,10.10
2010,11,21,05,37,7.50
2010,11,21,05,38,9.60
2010,11,21,05,39,12.00
2010,11,21,05,40,8.50
2010,11,21,05,41,7.60
2010,11,21,05,42,5.80
2010,11,21,05,43,14.30
2010,11,21,05,44,11.20
2010,11,21,05,45,4.20
2010,11,21,05,46,8.20
2010,11,21,05,47,9.10
2010,11,21,05,48,8.40
2010,11,21,05,49,6.50
2010,11,21,05,50,5.00
2010,11,21,05,51,4.80
2010,11,21,05,52,7.10
2010,11,21,05,53,11.90
2010,11,21,05,54,8.60
2010,11,21,05,55,12.70
2010,11,21,05,56,11.00
2010,11,21,05,57,10.60
2010,11,21,05,58,11.70
2010,11,21,05,59,14.50
2010,11,21,06,00,13.50
2010,11,21,06,01,10.10
2010,11,21,06,02,6.70
2010,11,21,06,03,10.80
2010,11,21,06,04,7.20
2010,11,21,06,05,13.20
2010,11,21,06,06,7.70
2010,11,21,06,07,5.00
2010,11,21,06,08,6.30
2010,11,21,06,09,8.60
2010,11,21,06,10,12.60
2010,11,21,06,11,11.80
2010,11,21,06,12,11.10
2010,11,21,06,13,9.20
2010,11,21,06,14,8.10
2010,11,21,06,15,7.70
2010,11,21,06,16,7.70
2010,11,21,06,17,10.60
2010,11,21,06,18,12.10
2010,11,21,06,19,7.30
2010,11,21,06,20,9.70
2010,11,21,06,21,3.50
2010,11,21,06,22,6.20
2010,11,21,06,23,10.60
2010,11,21,06,24,10.60
2010,11,21,06,25,6.40
2010,11,21,06,26,3.00
2010,11,21,06,27,4.00
2010,11,21,06,28,3.40
2010,11,21,06,29,11.30
2010,11,21,06,30,10.40
2010,11,21,06,31,13.10
2010,11,21,06,32,11.20
2010,11,21,06,33,4.80
2010,11,21,06,34,6.10
2010,11,21,06,35,5.80
2010,11,21,06,36,10.40
2010,11,21,06,37,8.00
2010,11,21,06,38,6.50
2010,11,21,06,39,2.20
2010,11,21,06,40,5.70
2010,11,21,06,41,5.00
2010,11,21,06,42,3.10
2010,11,21,06,43,4.80
2010,11,21,06,44,1.30
2010,11,21,06,45,1.00
2010,11,21,06,46,2.90
2010,11,21,06,47,9.80
2010,11,21,06,48,8.00
2010,11,21,06,49,4.60
2010,11,21,06,50,5.20
2010,11,21,06,51,0.60
2010,11,21,06,52,1.30
2010,11,21,06,53,4.10
2010,11,21,06,54,9.10
2010,11,21,06,55,7.00
2010,11,21,06,56,5.60
2010,11,21,06,57,8.90
2010,11,21,06,58,7.10
2010,11,21,06,59,10.10
2010,11,21,07,00,11.30
2010,11,21,07,01,9.30
2010,11,21,07,02,8.90
2010,11,21,07,03,8.30
2010,11,21,07,04,4.20
2010,11,21,07,05,1.00
2010,11,21,07,06,4.60
2010,11,21,07,07,3.20
2010,11,21,07,08,3.10
2010,11,21,07,09,1.20
2010,11,21,07,10,0.70
2010,11,21,07,11,2.00
2010,11,21,07,12,1.40
2010,11,21,07,13,3.10
2010,11,21,07,14,1.20
2010,11,21,07,15,1.40
2010,11,21,07,16,2.50
2010,11,21,07,17,3.80
2010,11,21,07,18,3.80
2010,11,21,07,19,1.60
2010,11,21,07,20,8.50
2010,11,21,07,21,5.70
2010,11,21,07,22,4.50
2010,11,21,07,23,4.10
2010,11,21,07,24,4.50
2010,11,21,07,25,2.30
2010,11,21,07,26,3.20
2010,11,21,07,27,2.70
2010,11,21,07,28,5.10
2010,11,21,07,29,1.10
2010,11,21,07,30,1.50
2010,11,21,07,31,0.20
2010,11,21,07,32,0.40
2010,11,21,07,33,0.70
2010,11,21,07,34,5.30
2010,11,21,07,35,4.50
2010,11,21,07,36,4.30
2010,11,21,07,37,0.30
2010,11,21,07,38,0.80
2010,11,21,07,39,0.30
2010,11,21,07,40,0.00
2010,11,21,07,41,0.30
2010,11,21,07,42,3.60
2010,11,21,07,43,2.20
2010,11,21,07,44,4.30
2010,11,21,07,45,0.50
2010,11,21,07,46,0.10
2010,11,21,07,47,3.80
2010,11,21,07,48,2.20
2010,11,21,07,49,0.90
2010,11,21,07,50,1.70
2010,11,21,07,51,0.20
2010,11,21,07,52,0.10
2010,11,21,07,53,1.70
2010,11,21,07,54,0.50
2010,11,21,07,55,0.00
2010,11,21,07,56,0.00
2010,11,21,07,57,2.40
2010,11,21,07,58,1.20
2010,11,21,07,59,0.30
2010,11,21,08,00,0.00
2010,11,21,08,01,0.00
2010,11,21,08,02,3.10
2010,11,21,08,03,5.30
2010,11,21,08,04,1.60
2010,11,21,08,05,3.80
2010,11,21,08,06,5.10
2010,11,21,08,07,4.30
2010,11,21,08,08,1.40
2010,11,21,08,09,2.20
2010,11,21,08,10,4.70
2010,11,21,08,11,5.10
2010,11,21,08,12,4.10
2010,11,21,08,13,2.30
2010,11,21,08,14,0.00
2010,11,21,08,15,6.40
2010,11,21,08,16,1.60
2010,11,21,08,17,0.30
2010,11,21,08,18,2.50
2010,11,21,08,19,5.70
2010,11,21,08,20,6.00
2010,11,21,08,21,6.70
2010,11,21,08,22,6.80
2010,11,21,08,23,5.60
2010,11,21,08,24,3.40
2010,11,21,08,25,1.30
2010,11,21,08,26,2.50
2010,11,21,08,27,4.30
2010,11,21,08,28,2.00
2010,11,21,08,29,5.00
2010,11,21,08,30,5.20
2010,11,21,08,31,4.60
2010,11,21,08,32,7.60
2010,11,21,08,33,8.00
2010,11,21,08,34,7.90
2010,11,21,08,35,12.70
2010,11,21,08,36,9.90
2010,11,21,08,37,7.30
2010,11,21,08,38,11.40
2010,11,21,08,39,8.10
2010,11,21,08,40,7.10
2010,11,21,08,41,10.60
2010,11,21,08,42,12.60
2010,11,21,08,43,12.30
2010,11,21,08,44,6.90
2010,11,21,08,45,8.80
2010,11,21,08,46,7.90
2010,11,21,08,47,8.20
2010,11,21,08,48,2.40
2010,11,21,08,49,1.80
2010,11,21,08,50,3.40
2010,11,21,08,51,1.60
2010,11,21,08,52,5.70
2010,11,21,08,53,8.60
2010,11,21,08,54,10.20
2010,11,21,08,55,11.90
2010,11,21,08,56,9.90
2010,11,21,08,57,6.70
2010,11,21,08,58,6.40
2010,11,21,08,59,8.30
2010,11,21,09,00,10.80
2010,11,21,09,01,10.20
2010,11,21,09,02,7.50
2010,11,21,09,03,6.90
2010,11,21,09,04,5.30
2010,11,21,09,05,9.80
2010,11,21,09,06,9.10
2010,11,21,09,07,8.50
2010,11,21,09,08,9.50
2010,11,21,09,09,16.40
2010,11,21,09,10,9.30
2010,11,21,09,11,9.80
2010,11,21,09,12,9.20
2010,11,21,09,13,13.10
2010,11,21,09,14,15.50
2010,11,21,09,15,14.70
2010,11,21,09,16,15.20
2010,11,21,09,17,14.70
2010,11,21,09,18,11.20
2010,11,21,09,19,10.00
2010,11,21,09,20,12.50
2010,11,21,09,21,14.80
2010,11,21,09,22,17.00
2010,11,21,09,23,14.00
2010,11,21,09,24,11.40
2010,11,21,09,25,10.20
2010,11,21,09,26,6.90
2010,11,21,09,27,5.30
2010,11,21,09,28,4.80
2010,11,21,09,29,12.90
2010,11,21,09,30,12.70
2010,11,21,09,31,10.80
2010,11,21,09,32,9.50
2010,11,21,09,33,9.80
2010,11,21,09,34,10.30
2010,11,21,09,35,10.50
2010,11,21,09,36,11.90
2010,11,21,09,37,15.00
2010,11,21,09,38,9.20
2010,11,21,09,39,15.20
2010,11,21,09,40,7.30
2010,11,21,09,41,12.70
2010,11,21,09,42,14.30
2010,11,21,09,43,14.80
2010,11,21,09,44,12.80
2010,11,21,09,45,12.30
2010,11,21,09,46,13.40
2010,11,21,09,47,13.40
2010,11,21,09,48,14.90
2010,11,21,09,49,13.50
2010,11,21,09,50,10.80
2010,11,21,09,51,12.60
2010,11,21,09,52,13.50
2010,11,21,09,53,14.60
2010,11,21,09,54,13.10
2010,11,21,09,55,14.70
2010,11,21,09,56,13.90
2010,11,21,09,57,12.70
2010,11,21,09,58,14.80
2010,11,21,09,59,18.00
2010,11,21,10,00,13.50
2010,11,21,10,01,11.10
2010,11,21,10,02,18.10
2010,11,21,10,03,17.10
2010,11,21,10,04,12.50
2010,11,21,10,05,10.10
2010,11,21,10,06,15.00
2010,11,21,10,07,12.50
2010,11,21,10,08,12.40
2010,11,21,10,09,18.10
2010,11,21,10,10,22.00
2010,11,21,10,11,23.70
2010,11,21,10,12,21.70
2010,11,21,10,13,15.40
2010,11,21,10,14,17.40
2010,11,21,10,15,12.00
2010,11,21,10,16,19.10
2010,11,21,10,17,21.80
2010,11,21,10,18,15.80
2010,11,21,10,19,12.50
2010,11,21,10,20,15.70
2010,11,21,10,21,15.90
2010,11,21,10,22,17.00
2010,11,21,10,23,14.70
2010,11,21,10,24,14.60
2010,11,21,10,25,14.60
2010,11,21,10,26,13.90
2010,11,21,10,27,15.30
2010,11,21,10,28,19.70
2010,11,21,10,29,14.60
2010,11,21,10,30,11.70
2010,11,21,10,31,14.20
2010,11,21,10,32,20.10
2010,11,21,10,33,14.40
2010,11,21,10,34,21.50
2010,11,21,10,35,14.90
2010,11,21,10,36,18.20
2010,11,21,10,37,19.80
2010,11,21,10,38,16.40
2010,11,21,10,39,18.70
2010,11,21,10,40,14.70
2010,11,21,10,41,18.60
2010,11,21,10,42,15.00
2010,11,21,10,43,20.80
2010,11,21,10,44,16.60
2010,11,21,10,45,14.60
2010,11,21,10,46,17.00
2010,11,21,10,47,15.30
2010,11,21,10,48,16.20
2010,11,21,10,49,20.60
2010,11,21,10,50,16.60
2010,11,21,10,51,18.10
2010,11,21,10,52,8.80
2010,11,21,10,53,19.70
2010,11,21,10,54,15.40
2010,11,21,10,55,19.70
2010,11,21,10,56,16.70
2010,11,21,10,57,16.80
2010,11,21,10,58,14.30
2010,11,21,10,59,13.00
2010,11,21,11,00,10.20
2010,11,21,11,01,9.60
2010,11,21,11,02,10.80
2010,11,21,11,03,13.20
2010,11,21,11,04,11.00
2010,11,21,11,05,8.40
2010,11,21,11,06,17.00
2010,11,21,11,07,13.00
2010,11,21,11,08,18.20
2010,11,21,11,09,21.00
2010,11,21,11,10,20.70
2010,11,21,11,11,16.30
2010,11,21,11,12,23.60
2010,11,21,11,13,14.50
2010,11,21,11,14,15.20
2010,11,21,11,15,20.70
2010,11,21,11,16,14.60
2010,11,21,11,17,23.60
2010,11,21,11,18,21.40
2010,11,21,11,19,18.60
2010,11,21,11,20,19.00
2010,11,21,11,21,18.90
2010,11,21,11,22,20.20
2010,11,21,11,23,19.80
2010,11,21,11,24,15.00
2010,11,21,11,25,16.30
2010,11,21,11,26,15.90
2010,11,21,11,27,18.90
2010,11,21,11,28,16.00
2010,11,21,11,29,20.90
2010,11,21,11,30,10.40
2010,11,21,11,31,18.90
2010,11,21,11,32,13.00
2010,11,21,11,33,12.70
2010,11,21,11,34,17.90
2010,11,21,11,35,22.10
2010,11,21,11,36,22.40
2010,11,21,11,37,17.10
2010,11,21,11,38,15.20
2010,11,21,11,39,11.70
2010,11,21,11,40,13.10
2010,11,21,11,41,13.90
2010,11,21,11,42,15.50
2010,11,21,11,43,12.50
2010,11,21,11,44,12.50
2010,11,21,11,45,4.70
2010,11,21,11,46,15.90
2010,11,21,11,47,23.30
2010,11,21,11,48,20.00
2010,11,21,11,49,9.70
2010,11,21,11,50,12.50
2010,11,21,11,51,11.70
2010,11,21,11,52,6.80
2010,11,21,11,53,15.00
2010,11,21,11,54,14.60
2010,11,21,11,55,13.60
2010,11,21,11,56,15.40
2010,11,21,11,57,10.10
2010,11,21,11,58,7.80
2010,11,21,11,59,8.10
2010,11,21,12,00,16.40
2010,11,21,12,01,19.30
2010,11,21,12,02,7.70
2010,11,21,12,03,10.50
2010,11,21,12,04,17.10
2010,11,21,12,05,13.90
2010,11,21,12,06,8.10
2010,11,21,12,07,5.80
2010,11,21,12,08,10.50
2010,11,21,12,09,10.90
2010,11,21,12,10,12.20
2010,11,21,12,11,14.20
2010,11,21,12,12,14.70
2010,11,21,12,13,17.40
2010,11,21,12,14,14.30
2010,11,21,12,15,8.50
2010,11,21,12,16,15.00
2010,11,21,12,17,18.40
2010,11,21,12,18,9.90
2010,11,21,12,19,16.00
2010,11,21,12,20,17.00
2010,11,21,12,21,20.10
2010,11,21,12,22,17.70
2010,11,21,12,23,13.20
2010,11,21,12,24,7.60
2010,11,21,12,25,15.10
2010,11,21,12,26,18.50
2010,11,21,12,27,17.30
2010,11,21,12,28,13.10
2010,11,21,12,29,11.50
2010,11,21,12,30,14.90
2010,11,21,12,31,16.60
2010,11,21,12,32,12.00
2010,11,21,12,33,16.40
2010,11,21,12,34,8.70
2010,11,21,12,35,11.60
2010,11,21,12,36,13.60
2010,11,21,12,37,13.50
2010,11,21,12,38,7.40
2010,11,21,12,39,8.70
2010,11,21,12,40,14.00
2010,11,21,12,41,15.70
2010,11,21,12,42,15.10
2010,11,21,12,43,13.00
2010,11,21,12,44,15.70
2010,11,21,12,45,22.70
2010,11,21,12,46,22.30
2010,11,21,12,47,17.40
2010,11,21,12,48,19.60
2010,11,21,12,49,20.30
2010,11,21,12,50,17.00
2010,11,21,12,51,11.90
2010,11,21,12,52,16.50
2010,11,21,12,53,17.40
2010,11,21,12,54,17.30
2010,11,21,12,55,14.70
2010,11,21,12,56,13.90
2010,11,21,12,57,17.10
2010,11,21,12,58,25.20
2010,11,21,12,59,18.30
2010,11,21,13,00,13.80
2010,11,21,13,01,16.70
2010,11,21,13,02,17.80
2010,11,21,13,03,22.40
2010,11,21,13,04,17.70
2010,11,21,13,05,16.50
2010,11,21,13,06,16.30
2010,11,21,13,07,14.50
2010,11,21,13,08,13.60
2010,11,21,13,09,21.90
2010,11,21,13,10,19.00
2010,11,21,13,11,19.10
2010,11,21,13,12,20.80
2010,11,21,13,13,12.00
2010,11,21,13,14,20.70
2010,11,21,13,15,19.60
2010,11,21,13,16,17.30
2010,11,21,13,17,11.00
2010,11,21,13,18,17.20
2010,11,21,13,19,15.00
2010,11,21,13,20,17.30
2010,11,21,13,21,6.80
2010,11,21,13,22,16.90
2010,11,21,13,23,10.20
2010,11,21,13,24,15.50
2010,11,21,13,25,17.70
2010,11,21,13,26,17.60
2010,11,21,13,27,9.70
2010,11,21,13,28,15.10
2010,11,21,13,29,10.70
2010,11,21,13,30,10.50
2010,11,21,13,31,14.40
2010,11,21,13,32,12.30
2010,11,21,13,33,12.70
2010,11,21,13,34,11.60
2010,11,21,13,35,12.10
2010,11,21,13,36,15.10
2010,11,21,13,37,13.50
2010,11,21,13,38,15.60
2010,11,21,13,39,10.80
2010,11,21,13,40,14.60
2010,11,21,13,41,12.10
2010,11,21,13,42,18.10
2010,11,21,13,43,15.80
2010,11,21,13,44,18.40
2010,11,21,13,45,16.40
2010,11,21,13,46,16.60
2010,11,21,13,47,10.50
2010,11,21,13,48,8.00
2010,11,21,13,49,7.80
2010,11,21,13,50,12.00
2010,11,21,13,51,14.60
2010,11,21,13,52,15.30
2010,11,21,13,53,16.60
2010,11,21,13,54,14.50
2010,11,21,13,55,9.80
2010,11,21,13,56,12.60
2010,11,21,13,57,11.70
2010,11,21,13,58,18.00
2010,11,21,13,59,15.00
2010,11,21,14,00,15.40
2010,11,21,14,01,17.70
2010,11,21,14,02,22.20
2010,11,21,14,03,17.40
2010,11,21,14,04,10.90
2010,11,21,14,05,12.70
2010,11,21,14,06,9.70
2010,11,21,14,07,12.50
2010,11,21,14,08,13.60
2010,11,21,14,09,16.80
2010,11,21,14,10,13.80
2010,11,21,14,11,11.30
2010,11,21,14,12,11.70
2010,11,21,14,13,9.20
2010,11,21,14,14,15.00
2010,11,21,14,15,15.40
2010,11,21,14,16,12.60
2010,11,21,14,17,15.20
2010,11,21,14,18,11.30
2010,11,21,14,19,11.00
2010,11,21,14,20,15.20
2010,11,21,14,21,12.70
2010,11,21,14,22,14.40
2010,11,21,14,23,15.40
2010,11,21,14,24,9.70
2010,11,21,14,25,16.60
2010,11,21,14,26,13.00
2010,11,21,14,27,14.70
2010,11,21,14,28,10.90
2010,11,21,14,29,13.50
2010,11,21,14,30,19.00
2010,11,21,14,31,13.60
2010,11,21,14,32,14.10
2010,11,21,14,33,14.20
2010,11,21,14,34,20.40
2010,11,21,14,35,18.60
2010,11,21,14,36,16.20
2010,11,21,14,37,12.10
2010,11,21,14,38,13.80
2010,11,21,14,39,9.50
2010,11,21,14,40,7.40
2010,11,21,14,41,10.30
2010,11,21,14,42,16.60
2010,11,21,14,43,10.90
2010,11,21,14,44,16.60
2010,11,21,14,45,7.50
2010,11,21,14,46,10.10
2010,11,21,14,47,10.40
2010,11,21,14,48,14.20
2010,11,21,14,49,14.50
2010,11,21,14,50,7.70
2010,11,21,14,51,12.40
2010,11,21,14,52,14.70
2010,11,21,14,53,14.60
2010,11,21,14,54,13.40
2010,11,21,14,55,9.80
2010,11,21,14,56,5.50
2010,11,21,14,57,9.30
2010,11,21,14,58,12.20
2010,11,21,14,59,9.70
2010,11,21,15,00,7.50
2010,11,21,15,01,10.30
2010,11,21,15,02,10.50
2010,11,21,15,03,10.20
2010,11,21,15,04,11.30
2010,11,21,15,05,11.80
2010,11,21,15,06,16.50
2010,11,21,15,07,7.40
2010,11,21,15,08,7.40
2010,11,21,15,09,10.30
2010,11,21,15,10,11.20
2010,11,21,15,11,11.60
2010,11,21,15,12,12.80
2010,11,21,15,13,16.30
2010,11,21,15,14,8.20
2010,11,21,15,15,12.10
2010,11,21,15,16,13.40
2010,11,21,15,17,11.30
2010,11,21,15,18,10.30
2010,11,21,15,19,9.20
2010,11,21,15,20,9.30
2010,11,21,15,21,9.00
2010,11,21,15,22,4.00
2010,11,21,15,23,11.70
2010,11,21,15,24,16.80
2010,11,21,15,25,15.80
2010,11,21,15,26,16.50
2010,11,21,15,27,13.50
2010,11,21,15,28,11.80
2010,11,21,15,29,9.00
2010,11,21,15,30,13.40
2010,11,21,15,31,16.90
2010,11,21,15,32,15.80
2010,11,21,15,33,12.10
2010,11,21,15,34,6.40
2010,11,21,15,35,11.30
2010,11,21,15,36,13.00
2010,11,21,15,37,15.40
2010,11,21,15,38,15.50
2010,11,21,15,39,19.30
2010,11,21,15,40,17.00
2010,11,21,15,41,12.60
2010,11,21,15,42,12.50
2010,11,21,15,43,8.80
2010,11,21,15,44,13.80
2010,11,21,15,45,14.20
2010,11,21,15,46,12.40
2010,11,21,15,47,17.70
2010,11,21,15,48,16.70
2010,11,21,15,49,12.40
2010,11,21,15,50,9.80
2010,11,21,15,51,15.90
2010,11,21,15,52,17.90
2010,11,21,15,53,14.10
2010,11,21,15,54,12.60
2010,11,21,15,55,17.20
2010,11,21,15,56,12.10
2010,11,21,15,57,13.90
2010,11,21,15,58,15.50
2010,11,21,15,59,13.50
2010,11,21,16,00,14.30
2010,11,21,16,01,8.20
2010,11,21,16,02,8.00
2010,11,21,16,03,9.10
2010,11,21,16,04,14.80
2010,11,21,16,05,13.80
2010,11,21,16,06,7.80
2010,11,21,16,07,7.40
2010,11,21,16,08,15.80
2010,11,21,16,09,14.40
2010,11,21,16,10,15.90
2010,11,21,16,11,14.80
2010,11,21,16,12,13.00
2010,11,21,16,13,4.60
2010,11,21,16,14,10.80
2010,11,21,16,15,14.10
2010,11,21,16,16,9.00
2010,11,21,16,17,13.50
2010,11,21,16,18,10.90
2010,11,21,16,19,10.10
2010,11,21,16,20,12.80
2010,11,21,16,21,11.60
2010,11,21,16,22,9.20
2010,11,21,16,23,14.60
2010,11,21,16,24,15.10
2010,11,21,16,25,13.00
2010,11,21,16,26,15.90
2010,11,21,16,27,9.10
2010,11,21,16,28,10.60
2010,11,21,16,29,13.60
2010,11,21,16,30,9.30
2010,11,21,16,31,7.00
2010,11,21,16,32,13.10
2010,11,21,16,33,4.30
2010,11,21,16,34,9.70
2010,11,21,16,35,11.10
2010,11,21,16,36,9.90
2010,11,21,16,37,13.80
2010,11,21,16,38,9.50
2010,11,21,16,39,14.50
2010,11,21,16,40,7.40
2010,11,21,16,41,6.10
2010,11,21,16,42,9.70
2010,11,21,16,43,7.40
2010,11,21,16,44,13.60
2010,11,21,16,45,9.80
2010,11,21,16,46,5.80
2010,11,21,16,47,7.10
2010,11,21,16,48,8.60
2010,11,21,16,49,8.70
2010,11,21,16,50,10.40
2010,11,21,16,51,9.50
2010,11,21,16,52,10.70
2010,11,21,16,53,12.50
2010,11,21,16,54,7.50
2010,11,21,16,55,12.50
2010,11,21,16,56,14.20
2010,11,21,16,57,10.50
2010,11,21,16,58,14.80
2010,11,21,16,59,4.80
2010,11,21,17,00,8.00
2010,11,21,17,01,8.20
2010,11,21,17,02,10.10
2010,11,21,17,03,8.40
2010,11,21,17,04,9.40
2010,11,21,17,05,11.90
2010,11,21,17,06,9.40
2010,11,21,17,07,6.50
2010,11,21,17,08,15.00
2010,11,21,17,09,14.60
2010,11,21,17,10,8.50
2010,11,21,17,11,5.10
2010,11,21,17,12,6.60
2010,11,21,17,13,9.10
2010,11,21,17,14,8.70
2010,11,21,17,15,9.70
2010,11,21,17,16,12.80
2010,11,21,17,17,16.20
2010,11,21,17,18,12.20
2010,11,21,17,19,17.90
2010,11,21,17,20,13.60
2010,11,21,17,21,13.20
2010,11,21,17,22,11.00
2010,11,21,17,23,12.30
2010,11,21,17,24,8.30
2010,11,21,17,25,10.30
2010,11,21,17,26,15.30
2010,11,21,17,27,9.90
2010,11,21,17,28,14.10
2010,11,21,17,29,18.00
2010,11,21,17,30,16.00
2010,11,21,17,31,7.10
2010,11,21,17,32,8.80
2010,11,21,17,33,10.80
2010,11,21,17,34,11.30
2010,11,21,17,35,7.60
2010,11,21,17,36,10.90
2010,11,21,17,37,12.80
2010,11,21,17,38,14.50
2010,11,21,17,39,8.20
2010,11,21,17,40,17.70
2010,11,21,17,41,11.70
2010,11,21,17,42,13.30
2010,11,21,17,43,8.60
2010,11,21,17,44,5.70